Del Bajio, Mexico

9:11 PM CDT on May 20, 2018 (GMT -0500)
De Guanajuato International

Weather History for MMLO - February, 2014

Change the Weather History Date:

Wednesday, February 19, 2014

  Actual Average Record
Temperature  
Mean Temperature 68 °F -  
Max Temperature 86 °F 78 °F 87 °F (2009)
Min Temperature 50 °F 45 °F 37 °F (2004)
Cooling Degree Days 3    
Growing Degree Days 18 (Base 50)    
Moisture  
Dew Point 32 °F    
Average Humidity 31    
Maximum Humidity 50    
Minimum Humidity 14    
Precipitation  
Precipitation 0.00 in - - ()
Sea Level Pressure  
Sea Level Pressure 30.02 in    
Wind  
Wind Speed 3 mph ()    
Max Wind Speed 10 mph    
Max Gust Speed -    
Visibility 8.3 miles    
Events      
Averages and records for this station are not official NWS values.
T = Trace of Precipitation, MM = Missing Value Source: Averaged Metar Reports

Daily Weather History Graph

Daily Weather History Graph

Search for Another Location

Airport or City:

Astronomy

Feb. 19, 2014 Rise Set
Actual Time 7:13 AM CST 6:46 PM CST
Civil Twilight 6:51 AM CST 7:08 PM CST
Nautical Twilight 6:25 AM CST 7:34 PM CST
Astronomical Twilight 5:59 AM CST 8:00 PM CST
Moon 10:58 PM CST (2/19) 9:59 AM CST (2/19)
Length of Visible Light 12h 17m
Length of Day
11h 32m
Waning Gibbous, 79% of the Moon is Illuminated
Feb 19
Waning Gibbous
Feb 22
Last Quarter
Mar 1
New
Mar 8
First Quarter
Mar 16
Full

Hourly Weather History & Observations

Time (CST) Temp. Dew Point Humidity Pressure Visibility Wind Dir Wind Speed Gust Speed Precip Events Conditions
12:43 AM 55.4 °F 28.4 °F 36% 30.18 in 8.0 mi Calm Calm - N/A   Scattered Clouds
1:42 AM 53.6 °F 30.2 °F 41% 30.18 in 8.0 mi East 5.8 mph - N/A   Scattered Clouds
2:44 AM 53.6 °F 30.2 °F 41% 29.79 in 8.0 mi WSW 10.4 mph - N/A   Scattered Clouds
3:44 AM 51.8 °F 32.0 °F 47% 30.18 in 8.0 mi NE 6.9 mph - N/A   Scattered Clouds
4:43 AM 51.8 °F 32.0 °F 47% 30.18 in 8.0 mi Calm Calm - N/A   Scattered Clouds
5:44 AM 50.0 °F 32.0 °F 50% 29.80 in 8.0 mi Calm Calm - N/A   Scattered Clouds
6:44 AM 50.0 °F 32.0 °F 50% 30.18 in 8.0 mi NE 5.8 mph - N/A   Scattered Clouds
7:47 AM 50.0 °F 32.0 °F 50% 30.21 in 8.0 mi Calm Calm - N/A   Mostly Cloudy
8:53 AM 62.6 °F 32.0 °F 32% 29.91 in 8.0 mi Calm Calm - N/A   Mostly Cloudy
9:43 AM 69.8 °F 35.6 °F 28% 30.24 in 8.0 mi Calm Calm - N/A   Mostly Cloudy
10:49 AM 73.4 °F 35.6 °F 25% 30.24 in 8.0 mi Calm Calm - N/A   Mostly Cloudy
11:41 AM 75.2 °F 35.6 °F 24% 29.84 in 8.0 mi Calm Calm - N/A   Mostly Cloudy
12:46 PM 80.6 °F 35.6 °F 20% 30.15 in 8.0 mi Calm Calm - N/A   Mostly Cloudy
1:45 PM 84.2 °F 30.2 °F 14% 30.12 in 9.0 mi SSW 8.1 mph - N/A   Mostly Cloudy
2:45 PM 86.0 °F 32.0 °F 14% 29.65 in 10.0 mi Calm Calm - N/A   Mostly Cloudy
3:55 PM 86.0 °F 32.0 °F 14% 30.06 in 10.0 mi NW 4.6 mph - N/A   Mostly Cloudy
4:53 PM 84.2 °F 32.0 °F 15% 30.03 in 10.0 mi NW 5.8 mph - N/A   Mostly Cloudy
6:02 PM 80.6 °F 30.2 °F 16% 29.68 in 10.0 mi NW 5.8 mph - N/A   Mostly Cloudy
6:53 PM 73.4 °F 30.2 °F 20% 30.06 in 10.0 mi Calm Calm - N/A   Mostly Cloudy
7:47 PM 73.4 °F 32.0 °F 22% 30.09 in 8.0 mi Calm Calm - N/A   Mostly Cloudy
8:45 PM 66.2 °F 33.8 °F 30% 29.75 in 8.0 mi WSW 6.9 mph - N/A   Mostly Cloudy
9:44 PM 64.4 °F 33.8 °F 32% 30.14 in 7.0 mi North 6.9 mph - N/A   Scattered Clouds
10:49 PM 62.6 °F 33.8 °F 34% 30.13 in 6.0 mi Calm Calm - N/A   Scattered Clouds
11:50 PM 60.8 °F 33.8 °F 36% 29.78 in 6.0 mi Calm Calm - N/A   Scattered Clouds